Time,TemperatureF,DewpointF,PressureIn,WindDirection,WindDirectionDegrees,WindSpeedMPH,WindSpeedGustMPH,Humidity,HourlyPrecipIn,Conditions,Clouds,dailyrainin,SoftwareType,DateUTC
2013-04-13 00:01:00,30.0,23.7,30.05,South,180,2.0,4.0,77,0.00,,,0.00,meteohub,2013-04-13 05:01:00,
2013-04-13 00:06:00,30.0,23.7,30.05,SE,135,2.0,4.0,77,0.00,,,0.00,meteohub,2013-04-13 05:06:00,
2013-04-13 00:11:00,30.0,23.7,30.05,SW,225,2.0,4.0,77,0.00,,,0.00,meteohub,2013-04-13 05:11:00,
2013-04-13 00:17:00,29.8,23.5,30.05,SE,135,2.0,5.0,77,0.00,,,0.00,meteohub,2013-04-13 05:17:00,
2013-04-13 00:22:00,29.8,23.5,30.04,South,180,3.0,5.0,77,0.00,,,0.00,meteohub,2013-04-13 05:22:00,
2013-04-13 00:27:00,29.8,23.5,30.05,South,180,2.0,5.0,77,0.00,,,0.00,meteohub,2013-04-13 05:27:00,
2013-04-13 00:32:00,29.7,23.4,30.05,SW,225,2.0,4.0,77,0.00,,,0.00,meteohub,2013-04-13 05:32:00,
2013-04-13 00:37:00,29.7,23.4,30.04,South,180,4.0,5.0,77,0.00,,,0.00,meteohub,2013-04-13 05:37:00,
2013-04-13 00:42:00,29.7,23.4,30.04,SW,225,2.0,5.0,77,0.00,,,0.00,meteohub,2013-04-13 05:42:00,
2013-04-13 00:48:00,29.7,23.4,30.04,South,180,3.0,6.0,77,0.00,,,0.00,meteohub,2013-04-13 05:48:00,
2013-04-13 00:53:00,29.7,23.4,30.04,South,180,2.0,6.0,77,0.00,,,0.00,meteohub,2013-04-13 05:53:00,
2013-04-13 00:58:00,29.7,23.0,30.04,South,180,2.0,5.0,76,0.00,,,0.00,meteohub,2013-04-13 05:58:00,
2013-04-13 01:03:00,29.7,23.0,30.04,South,180,5.0,5.0,76,0.00,,,0.00,meteohub,2013-04-13 06:03:00,
2013-04-13 01:08:00,29.5,22.8,30.05,SSW,203,2.0,5.0,76,0.00,,,0.00,meteohub,2013-04-13 06:08:00,
2013-04-13 01:13:00,29.3,23.0,30.05,SW,225,2.0,5.0,77,0.00,,,0.00,meteohub,2013-04-13 06:13:00,
2013-04-13 01:18:00,29.3,23.0,30.05,SW,225,2.0,5.0,77,0.00,,,0.00,meteohub,2013-04-13 06:18:00,
2013-04-13 01:23:00,29.1,22.8,30.05,SW,225,2.0,5.0,77,0.00,,,0.00,meteohub,2013-04-13 06:23:00,
2013-04-13 01:28:00,29.1,22.8,30.05,South,180,2.0,3.0,77,0.00,,,0.00,meteohub,2013-04-13 06:28:00,
2013-04-13 01:34:00,29.1,23.2,30.05,SE,135,2.0,3.0,78,0.00,,,0.00,meteohub,2013-04-13 06:34:00,
2013-04-13 01:39:00,29.1,23.2,30.05,SE,135,2.0,3.0,78,0.00,,,0.00,meteohub,2013-04-13 06:39:00,
2013-04-13 01:45:00,29.1,23.2,30.05,South,180,1.0,3.0,78,0.00,,,0.00,meteohub,2013-04-13 06:45:00,
2013-04-13 01:51:00,29.1,23.2,30.05,South,180,2.0,3.0,78,0.00,,,0.00,meteohub,2013-04-13 06:51:00,
2013-04-13 01:57:00,28.9,23.0,30.05,South,180,2.0,4.0,78,0.00,,,0.00,meteohub,2013-04-13 06:57:00,
2013-04-13 02:03:00,28.9,23.2,30.05,South,180,2.0,4.0,79,0.00,,,0.00,meteohub,2013-04-13 07:03:00,
2013-04-13 02:08:00,28.9,23.2,30.05,South,180,2.0,3.0,79,0.00,,,0.00,meteohub,2013-04-13 07:08:00,
2013-04-13 02:13:00,28.9,23.2,30.05,South,180,3.0,3.0,79,0.00,,,0.00,meteohub,2013-04-13 07:13:00,
2013-04-13 02:19:00,28.8,23.0,30.04,SW,225,1.0,3.0,79,0.00,,,0.00,meteohub,2013-04-13 07:19:00,
2013-04-13 02:24:00,28.8,23.0,30.05,SE,135,0.0,3.0,79,0.00,,,0.00,meteohub,2013-04-13 07:24:00,
2013-04-13 02:30:00,28.8,23.0,30.05,SE,135,1.0,3.0,79,0.00,,,0.00,meteohub,2013-04-13 07:30:00,
2013-04-13 02:35:00,28.8,23.0,30.04,South,180,1.0,2.0,79,0.00,,,0.00,meteohub,2013-04-13 07:35:00,
2013-04-13 02:41:00,28.8,23.4,30.04,SW,225,2.0,2.0,80,0.00,,,0.00,meteohub,2013-04-13 07:41:00,
2013-04-13 02:47:00,28.6,23.2,30.04,SE,135,1.0,2.0,80,0.00,,,0.00,meteohub,2013-04-13 07:47:00,
2013-04-13 02:52:00,28.6,23.2,30.04,South,180,0.0,2.0,80,0.00,,,0.00,meteohub,2013-04-13 07:52:00,
2013-04-13 02:57:00,28.6,23.2,30.04,SE,135,1.0,2.0,80,0.00,,,0.00,meteohub,2013-04-13 07:57:00,
2013-04-13 03:02:00,28.6,23.2,30.04,SE,135,1.0,2.0,80,0.00,,,0.00,meteohub,2013-04-13 08:02:00,
2013-04-13 03:08:00,28.8,23.7,30.04,SE,135,1.0,2.0,81,0.00,,,0.00,meteohub,2013-04-13 08:08:00,
2013-04-13 03:13:00,28.8,23.7,30.04,NE,45,1.0,2.0,81,0.00,,,0.00,meteohub,2013-04-13 08:13:00,
2013-04-13 03:18:00,28.8,23.7,30.04,East,90,2.0,2.0,81,0.00,,,0.00,meteohub,2013-04-13 08:18:00,
2013-04-13 03:23:00,28.8,23.7,30.03,SE,135,1.0,2.0,81,0.00,,,0.00,meteohub,2013-04-13 08:23:00,
2013-04-13 03:28:00,28.9,23.9,30.03,SE,135,2.0,2.0,81,0.00,,,0.00,meteohub,2013-04-13 08:28:00,
2013-04-13 03:34:00,28.9,24.1,30.03,SE,135,2.0,3.0,82,0.00,,,0.00,meteohub,2013-04-13 08:34:00,
2013-04-13 03:39:00,28.9,24.1,30.04,SE,135,2.0,3.0,82,0.00,,,0.00,meteohub,2013-04-13 08:39:00,
2013-04-13 03:45:00,28.8,23.9,30.04,SE,135,1.0,3.0,82,0.00,,,0.00,meteohub,2013-04-13 08:45:00,
2013-04-13 03:51:00,28.8,23.9,30.03,SE,135,1.0,3.0,82,0.00,,,0.00,meteohub,2013-04-13 08:51:00,
2013-04-13 03:57:00,28.8,23.9,30.04,SE,135,3.0,3.0,82,0.00,,,0.00,meteohub,2013-04-13 08:57:00,
2013-04-13 04:02:00,28.8,23.9,30.04,SE,135,2.0,3.0,82,0.00,,,0.00,meteohub,2013-04-13 09:02:00,
2013-04-13 04:07:00,28.8,23.9,30.03,SE,135,2.0,3.0,82,0.00,,,0.00,meteohub,2013-04-13 09:07:00,
2013-04-13 04:12:00,28.8,23.9,30.03,SE,135,3.0,3.0,82,0.00,,,0.00,meteohub,2013-04-13 09:12:00,
2013-04-13 04:18:00,28.8,23.9,30.03,SE,135,4.0,4.0,82,0.00,,,0.00,meteohub,2013-04-13 09:18:00,
2013-04-13 04:23:00,28.6,23.7,30.03,SE,135,2.0,4.0,82,0.00,,,0.00,meteohub,2013-04-13 09:23:00,
2013-04-13 04:28:00,28.8,23.9,30.03,SE,135,2.0,4.0,82,0.00,,,0.00,meteohub,2013-04-13 09:28:00,
2013-04-13 04:33:00,28.8,23.9,30.04,SE,135,4.0,4.0,82,0.00,,,0.00,meteohub,2013-04-13 09:33:00,
2013-04-13 04:38:00,28.6,23.7,30.03,East,90,2.0,4.0,82,0.00,,,0.00,meteohub,2013-04-13 09:38:00,
2013-04-13 04:44:00,28.6,23.7,30.03,SE,135,3.0,4.0,82,0.00,,,0.00,meteohub,2013-04-13 09:44:00,
2013-04-13 04:49:00,28.8,23.9,30.04,SE,135,3.0,4.0,82,0.00,,,0.00,meteohub,2013-04-13 09:49:00,
2013-04-13 04:55:00,28.8,23.9,30.04,SE,135,4.0,4.0,82,0.00,,,0.00,meteohub,2013-04-13 09:55:00,
2013-04-13 05:00:00,28.8,23.9,30.04,ESE,113,4.0,4.0,82,0.00,,,0.00,meteohub,2013-04-13 10:00:00,
2013-04-13 05:05:00,28.8,23.9,30.04,ESE,113,4.0,4.0,82,0.00,,,0.00,meteohub,2013-04-13 10:05:00,
2013-04-13 05:11:00,28.8,24.3,30.04,SE,135,2.0,4.0,83,0.00,,,0.00,meteohub,2013-04-13 10:11:00,
2013-04-13 05:17:00,28.9,24.4,30.04,SE,135,4.0,6.0,83,0.00,,,0.00,meteohub,2013-04-13 10:17:00,
2013-04-13 05:22:00,28.9,24.4,30.04,South,180,4.0,6.0,83,0.00,,,0.00,meteohub,2013-04-13 10:22:00,
2013-04-13 05:27:00,28.9,24.4,30.04,SE,135,4.0,6.0,83,0.00,,,0.00,meteohub,2013-04-13 10:27:00,
2013-04-13 05:32:00,29.1,24.6,30.04,SE,135,3.0,6.0,83,0.00,,,0.00,meteohub,2013-04-13 10:32:00,
2013-04-13 05:38:00,29.1,24.6,30.04,SE,135,4.0,6.0,83,0.00,,,0.00,meteohub,2013-04-13 10:38:00,
2013-04-13 05:44:00,29.1,24.6,30.03,South,180,4.0,5.0,83,0.00,,,0.00,meteohub,2013-04-13 10:44:00,
2013-04-13 05:50:00,29.1,24.6,30.04,SE,135,6.0,6.0,83,0.00,,,0.00,meteohub,2013-04-13 10:50:00,
2013-04-13 05:55:00,28.9,24.4,30.04,ESE,113,5.0,6.0,83,0.00,,,0.00,meteohub,2013-04-13 10:55:00,
2013-04-13 06:01:00,28.9,24.4,30.04,East,90,5.0,7.0,83,0.00,,,0.00,meteohub,2013-04-13 11:01:00,
2013-04-13 06:07:00,28.9,24.4,30.04,SE,135,8.0,8.0,83,0.00,,,0.00,meteohub,2013-04-13 11:07:00,
2013-04-13 06:12:00,28.9,24.4,30.04,SE,135,7.0,9.0,83,0.00,,,0.00,meteohub,2013-04-13 11:12:00,
2013-04-13 06:18:00,28.9,24.1,30.04,SE,135,6.0,9.0,82,0.00,,,0.00,meteohub,2013-04-13 11:18:00,
2013-04-13 06:24:00,28.8,23.9,30.04,SSE,158,8.0,9.0,82,0.00,,,0.00,meteohub,2013-04-13 11:24:00,
2013-04-13 06:29:00,28.8,23.9,30.04,SSE,158,4.0,8.0,82,0.00,,,0.00,meteohub,2013-04-13 11:29:00,
2013-04-13 06:34:00,28.8,23.9,30.05,SE,135,4.0,8.0,82,0.00,,,0.00,meteohub,2013-04-13 11:34:00,
2013-04-13 06:40:00,28.8,23.9,30.04,ESE,113,7.0,10.0,82,0.00,,,0.00,meteohub,2013-04-13 11:40:00,
2013-04-13 06:45:00,28.8,23.9,30.04,SW,225,6.0,10.0,82,0.00,,,0.00,meteohub,2013-04-13 11:45:00,
2013-04-13 06:52:00,28.8,23.9,30.04,South,180,6.0,8.0,82,0.00,,,0.00,meteohub,2013-04-13 11:52:00,
2013-04-13 06:57:00,28.9,24.1,30.05,South,180,5.0,8.0,82,0.00,,,0.00,meteohub,2013-04-13 11:57:00,
2013-04-13 07:03:00,28.9,24.1,30.04,South,180,7.0,8.0,82,0.00,,,0.00,meteohub,2013-04-13 12:03:00,
2013-04-13 07:09:00,29.1,24.3,30.05,South,180,5.0,8.0,82,0.00,,,0.00,meteohub,2013-04-13 12:09:00,
2013-04-13 07:14:00,29.1,24.3,30.05,SE,135,5.0,8.0,82,0.00,,,0.00,meteohub,2013-04-13 12:14:00,
2013-04-13 07:19:00,29.3,24.4,30.05,South,180,4.0,8.0,82,0.00,,,0.00,meteohub,2013-04-13 12:19:00,
2013-04-13 07:25:00,29.3,24.4,30.06,South,180,4.0,8.0,82,0.00,,,0.00,meteohub,2013-04-13 12:25:00,
2013-04-13 07:30:00,29.5,24.6,30.05,South,180,4.0,7.0,82,0.00,,,0.00,meteohub,2013-04-13 12:30:00,
2013-04-13 07:36:00,29.5,24.4,30.06,SSW,203,2.0,7.0,81,0.00,,,0.00,meteohub,2013-04-13 12:36:00,
2013-04-13 07:41:00,29.7,24.6,30.06,SE,135,6.0,7.0,81,0.00,,,0.00,meteohub,2013-04-13 12:41:00,
2013-04-13 07:47:00,29.7,24.3,30.06,South,180,4.0,7.0,80,0.00,,,0.00,meteohub,2013-04-13 12:47:00,
2013-04-13 07:52:00,29.7,23.9,30.06,NE,45,6.0,8.0,79,0.00,,,0.00,meteohub,2013-04-13 12:52:00,
2013-04-13 07:57:00,29.8,24.1,30.06,South,180,3.0,8.0,79,0.00,,,0.00,meteohub,2013-04-13 12:57:00,
2013-04-13 08:02:00,30.0,24.1,30.07,SW,225,10.0,10.0,78,0.00,,,0.00,meteohub,2013-04-13 13:02:00,
2013-04-13 08:07:00,30.0,23.7,30.07,South,180,6.0,10.0,77,0.00,,,0.00,meteohub,2013-04-13 13:07:00,
2013-04-13 08:13:00,30.2,23.5,30.06,SSE,158,6.0,10.0,76,0.00,,,0.00,meteohub,2013-04-13 13:13:00,
2013-04-13 08:19:00,30.4,23.4,30.07,South,180,8.0,10.0,75,0.00,,,0.00,meteohub,2013-04-13 13:19:00,
2013-04-13 08:25:00,30.4,23.2,30.07,SW,225,3.0,8.0,74,0.00,,,0.00,meteohub,2013-04-13 13:25:00,
2013-04-13 08:31:00,30.4,23.2,30.07,South,180,8.0,8.0,74,0.00,,,0.00,meteohub,2013-04-13 13:31:00,
2013-04-13 08:36:00,30.6,23.2,30.07,South,180,4.0,8.0,74,0.00,,,0.00,meteohub,2013-04-13 13:36:00,
2013-04-13 08:41:00,30.7,23.4,30.07,South,180,7.0,8.0,74,0.00,,,0.00,meteohub,2013-04-13 13:41:00,
2013-04-13 08:48:00,30.7,23.2,30.07,South,180,7.0,10.0,73,0.00,,,0.00,meteohub,2013-04-13 13:48:00,
2013-04-13 08:54:00,30.7,23.2,30.07,South,180,2.0,10.0,73,0.00,,,0.00,meteohub,2013-04-13 13:54:00,
2013-04-13 08:59:00,30.9,23.4,30.08,South,180,2.0,10.0,73,0.00,,,0.00,meteohub,2013-04-13 13:59:00,
2013-04-13 09:04:00,30.9,23.4,30.07,South,180,7.0,7.0,73,0.00,,,0.00,meteohub,2013-04-13 14:04:00,
2013-04-13 09:09:00,31.1,23.2,30.08,South,180,3.0,7.0,72,0.00,,,0.00,meteohub,2013-04-13 14:09:00,
2013-04-13 09:15:00,31.1,23.2,30.07,South,180,5.0,8.0,72,0.00,,,0.00,meteohub,2013-04-13 14:15:00,
2013-04-13 09:20:00,31.3,23.4,30.07,South,180,5.0,8.0,72,0.00,,,0.00,meteohub,2013-04-13 14:20:00,
2013-04-13 09:26:00,31.5,23.2,30.08,SE,135,3.0,8.0,71,0.00,,,0.00,meteohub,2013-04-13 14:26:00,
2013-04-13 09:31:00,31.6,23.0,30.07,SE,135,5.0,8.0,70,0.00,,,0.00,meteohub,2013-04-13 14:31:00,
2013-04-13 09:37:00,31.8,22.5,30.08,South,180,4.0,8.0,68,0.00,,,0.00,meteohub,2013-04-13 14:37:00,
2013-04-13 09:42:00,32.0,22.3,30.08,South,180,4.0,8.0,67,0.00,,,0.00,meteohub,2013-04-13 14:42:00,
2013-04-13 09:47:00,32.7,23.0,30.08,ESE,113,5.0,7.0,67,0.00,,,0.00,meteohub,2013-04-13 14:47:00,
2013-04-13 09:52:00,32.9,22.8,30.07,South,180,4.0,7.0,66,0.00,,,0.00,meteohub,2013-04-13 14:52:00,
2013-04-13 09:57:00,32.5,22.1,30.07,SE,135,6.0,7.0,65,0.00,,,0.00,meteohub,2013-04-13 14:57:00,
2013-04-13 10:03:00,32.2,21.7,30.08,SE,135,6.0,8.0,65,0.00,,,0.00,meteohub,2013-04-13 15:03:00,
2013-04-13 10:08:00,32.4,21.9,30.07,SW,225,3.0,8.0,65,0.00,,,0.00,meteohub,2013-04-13 15:08:00,
2013-04-13 10:13:00,32.9,22.8,30.07,SW,225,7.0,8.0,66,0.00,,,0.00,meteohub,2013-04-13 15:13:00,
2013-04-13 10:19:00,32.9,22.1,30.07,South,180,7.0,7.0,64,0.00,,,0.00,meteohub,2013-04-13 15:19:00,
2013-04-13 10:26:00,33.1,22.6,30.07,South,180,6.0,8.0,65,0.01,,,0.01,meteohub,2013-04-13 15:26:00,
2013-04-13 10:31:00,33.3,22.5,30.07,South,180,7.0,8.0,64,0.01,,,0.01,meteohub,2013-04-13 15:31:00,
2013-04-13 10:36:00,33.3,22.5,30.07,SW,225,4.0,8.0,64,0.01,,,0.01,meteohub,2013-04-13 15:36:00,
2013-04-13 10:42:00,33.8,22.1,30.08,SW,225,8.0,8.0,62,0.01,,,0.01,meteohub,2013-04-13 15:42:00,
2013-04-13 10:47:00,33.8,21.4,30.08,South,180,4.0,8.0,60,0.01,,,0.01,meteohub,2013-04-13 15:47:00,
2013-04-13 10:52:00,33.8,21.4,30.08,SE,135,8.0,8.0,60,0.01,,,0.01,meteohub,2013-04-13 15:52:00,
2013-04-13 10:58:00,34.0,21.6,30.08,South,180,5.0,8.0,60,0.01,,,0.01,meteohub,2013-04-13 15:58:00,
2013-04-13 11:03:00,34.9,22.5,30.09,SW,225,4.0,8.0,60,0.01,,,0.01,meteohub,2013-04-13 16:03:00,
2013-04-13 11:09:00,35.1,22.1,30.08,SW,225,7.0,8.0,59,0.01,,,0.01,meteohub,2013-04-13 16:09:00,
2013-04-13 11:14:00,34.3,21.6,30.08,NE,45,8.0,8.0,59,0.01,,,0.01,meteohub,2013-04-13 16:14:00,
2013-04-13 11:20:00,34.0,21.6,30.09,SE,135,6.0,10.0,60,0.01,,,0.01,meteohub,2013-04-13 16:20:00,
2013-04-13 11:25:00,34.2,22.1,30.09,SE,135,8.0,11.0,61,0.00,,,0.01,meteohub,2013-04-13 16:25:00,
2013-04-13 11:30:00,34.2,22.1,30.09,SE,135,8.0,11.0,61,0.00,,,0.01,meteohub,2013-04-13 16:30:00,
2013-04-13 11:35:00,34.2,22.1,30.08,SE,135,8.0,10.0,61,0.00,,,0.01,meteohub,2013-04-13 16:35:00,
2013-04-13 11:40:00,35.1,23.0,30.09,SE,135,8.0,10.0,61,0.00,,,0.01,meteohub,2013-04-13 16:40:00,
2013-04-13 11:47:00,34.2,21.7,30.09,East,90,12.0,12.0,60,0.00,,,0.01,meteohub,2013-04-13 16:47:00,
2013-04-13 11:52:00,33.6,21.6,30.09,SE,135,4.0,12.0,61,0.00,,,0.01,meteohub,2013-04-13 16:52:00,
2013-04-13 11:57:00,33.6,21.6,30.10,ESE,113,11.0,12.0,61,0.00,,,0.01,meteohub,2013-04-13 16:57:00,
2013-04-13 12:02:00,33.6,21.6,30.09,SE,135,10.0,12.0,61,0.00,,,0.01,meteohub,2013-04-13 17:02:00,
2013-04-13 12:07:00,33.8,21.4,30.10,SE,135,6.0,11.0,60,0.00,,,0.01,meteohub,2013-04-13 17:07:00,
2013-04-13 12:13:00,34.3,21.9,30.10,SE,135,8.0,11.0,60,0.00,,,0.01,meteohub,2013-04-13 17:13:00,
2013-04-13 12:19:00,35.2,22.8,30.10,East,90,4.0,11.0,60,0.00,,,0.01,meteohub,2013-04-13 17:19:00,
2013-04-13 12:25:00,36.5,23.2,30.09,ESE,113,11.0,11.0,58,0.00,,,0.01,meteohub,2013-04-13 17:25:00,
2013-04-13 12:30:00,35.8,21.2,30.09,East,90,8.0,11.0,55,0.00,,,0.01,meteohub,2013-04-13 17:30:00,
2013-04-13 12:35:00,34.9,21.2,30.09,SE,135,8.0,11.0,57,0.00,,,0.01,meteohub,2013-04-13 17:35:00,
2013-04-13 12:41:00,34.7,21.4,30.09,East,90,6.0,11.0,58,0.00,,,0.01,meteohub,2013-04-13 17:41:00,
2013-04-13 12:47:00,34.7,21.4,30.09,SE,135,7.0,11.0,58,0.00,,,0.01,meteohub,2013-04-13 17:47:00,
2013-04-13 12:52:00,34.9,21.6,30.09,South,180,6.0,9.0,58,0.00,,,0.01,meteohub,2013-04-13 17:52:00,
2013-04-13 12:57:00,35.4,21.2,30.09,South,180,3.0,9.0,56,0.00,,,0.01,meteohub,2013-04-13 17:57:00,
2013-04-13 13:02:00,35.8,21.6,30.09,SE,135,8.0,9.0,56,0.00,,,0.01,meteohub,2013-04-13 18:02:00,
2013-04-13 13:07:00,35.6,20.7,30.09,East,90,9.0,9.0,54,0.00,,,0.01,meteohub,2013-04-13 18:07:00,
2013-04-13 13:13:00,35.6,20.1,30.09,SSW,203,5.0,10.0,53,0.00,,,0.01,meteohub,2013-04-13 18:13:00,
2013-04-13 13:18:00,35.6,20.1,30.09,SE,135,8.0,10.0,53,0.00,,,0.01,meteohub,2013-04-13 18:18:00,
2013-04-13 13:24:00,35.4,20.5,30.09,South,180,7.0,10.0,54,0.00,,,0.01,meteohub,2013-04-13 18:24:00,
2013-04-13 13:27:00,35.2,20.3,30.10,East,90,5.0,10.0,54,0.00,,,0.01,meteohub,2013-04-13 18:27:00,
2013-04-13 13:28:00,35.2,20.3,30.09,South,180,4.0,10.0,54,0.00,,,0.01,meteohub,2013-04-13 18:28:00,
2013-04-13 13:29:00,35.2,20.3,30.09,SE,135,4.0,10.0,54,0.00,,,0.01,meteohub,2013-04-13 18:29:00,
2013-04-13 13:34:00,35.4,20.8,30.10,NE,45,6.0,10.0,55,0.00,,,0.01,meteohub,2013-04-13 18:34:00,
2013-04-13 13:39:00,35.4,20.8,30.09,ESE,113,10.0,10.0,55,0.00,,,0.01,meteohub,2013-04-13 18:39:00,
2013-04-13 13:44:00,35.6,20.7,30.10,SE,135,8.0,10.0,54,0.00,,,0.01,meteohub,2013-04-13 18:44:00,
2013-04-13 13:50:00,35.8,20.3,30.09,SSE,158,8.0,10.0,53,0.00,,,0.01,meteohub,2013-04-13 18:50:00,
2013-04-13 13:55:00,35.8,20.3,30.10,East,90,4.0,10.0,53,0.00,,,0.01,meteohub,2013-04-13 18:55:00,
2013-04-13 14:00:00,35.8,19.9,30.09,South,180,4.0,9.0,52,0.00,,,0.01,meteohub,2013-04-13 19:00:00,
2013-04-13 14:05:00,35.4,19.9,30.10,SSE,158,8.0,9.0,53,0.00,,,0.01,meteohub,2013-04-13 19:05:00,
2013-04-13 14:10:00,35.2,19.8,30.10,SE,135,5.0,9.0,53,0.00,,,0.01,meteohub,2013-04-13 19:10:00,
2013-04-13 14:15:00,35.1,19.6,30.10,SE,135,8.0,9.0,53,0.00,,,0.01,meteohub,2013-04-13 19:15:00,
2013-04-13 14:20:00,35.1,20.1,30.10,SE,135,5.0,11.0,54,0.00,,,0.01,meteohub,2013-04-13 19:20:00,
2013-04-13 14:25:00,35.1,20.1,30.10,SE,135,9.0,11.0,54,0.00,,,0.01,meteohub,2013-04-13 19:25:00,
2013-04-13 14:30:00,34.9,19.9,30.10,SSW,203,4.0,11.0,54,0.00,,,0.01,meteohub,2013-04-13 19:30:00,
2013-04-13 14:35:00,35.1,20.5,30.10,SSE,158,6.0,9.0,55,0.00,,,0.01,meteohub,2013-04-13 19:35:00,
2013-04-13 14:40:00,35.1,20.5,30.10,SE,135,10.0,10.0,55,0.00,,,0.01,meteohub,2013-04-13 19:40:00,
2013-04-13 14:45:00,35.2,20.3,30.09,SE,135,5.0,10.0,54,0.00,,,0.01,meteohub,2013-04-13 19:45:00,
2013-04-13 14:51:00,35.4,20.5,30.10,ESE,113,9.0,10.0,54,0.00,,,0.01,meteohub,2013-04-13 19:51:00,
2013-04-13 14:56:00,35.4,20.5,30.10,SW,225,8.0,10.0,54,0.00,,,0.01,meteohub,2013-04-13 19:56:00,
2013-04-13 15:01:00,35.6,20.1,30.10,South,180,4.0,9.0,53,0.00,,,0.01,meteohub,2013-04-13 20:01:00,
2013-04-13 15:06:00,36.0,20.1,30.10,SE,135,8.0,9.0,52,0.00,,,0.01,meteohub,2013-04-13 20:06:00,
2013-04-13 15:11:00,35.8,19.9,30.10,SE,135,8.0,9.0,52,0.00,,,0.01,meteohub,2013-04-13 20:11:00,
2013-04-13 15:16:00,35.8,19.9,30.09,SE,135,9.0,11.0,52,0.00,,,0.01,meteohub,2013-04-13 20:16:00,
2013-04-13 15:21:00,35.6,20.1,30.09,SE,135,5.0,11.0,53,0.00,,,0.01,meteohub,2013-04-13 20:21:00,
2013-04-13 15:27:00,35.8,20.3,30.09,SE,135,8.0,11.0,53,0.00,,,0.01,meteohub,2013-04-13 20:27:00,
2013-04-13 15:32:00,35.6,20.1,30.09,East,90,8.0,10.0,53,0.00,,,0.01,meteohub,2013-04-13 20:32:00,
2013-04-13 15:37:00,35.8,20.8,30.09,SE,135,7.0,10.0,54,0.00,,,0.01,meteohub,2013-04-13 20:37:00,
2013-04-13 15:42:00,36.1,20.7,30.09,SE,135,4.0,10.0,53,0.00,,,0.01,meteohub,2013-04-13 20:42:00,
2013-04-13 15:47:00,36.3,21.2,30.09,East,90,8.0,10.0,54,0.00,,,0.01,meteohub,2013-04-13 20:47:00,
2013-04-13 15:52:00,36.3,21.2,30.09,East,90,8.0,8.0,54,0.00,,,0.01,meteohub,2013-04-13 20:52:00,
2013-04-13 15:57:00,35.6,20.7,30.09,South,180,5.0,8.0,54,0.00,,,0.01,meteohub,2013-04-13 20:57:00,
2013-04-13 16:03:00,35.8,20.8,30.09,East,90,5.0,8.0,54,0.00,,,0.01,meteohub,2013-04-13 21:03:00,
2013-04-13 16:08:00,36.0,21.0,30.09,SW,225,4.0,8.0,54,0.00,,,0.01,meteohub,2013-04-13 21:08:00,
2013-04-13 16:13:00,36.0,21.0,30.09,SE,135,8.0,8.0,54,0.00,,,0.01,meteohub,2013-04-13 21:13:00,
2013-04-13 16:18:00,35.8,20.8,30.09,SE,135,7.0,7.0,54,0.00,,,0.01,meteohub,2013-04-13 21:18:00,
2013-04-13 16:23:00,35.8,20.8,30.09,SE,135,4.0,10.0,54,0.00,,,0.01,meteohub,2013-04-13 21:23:00,
2013-04-13 16:28:00,35.8,20.8,30.09,SW,225,4.0,10.0,54,0.00,,,0.01,meteohub,2013-04-13 21:28:00,
2013-04-13 16:33:00,35.8,20.8,30.09,SE,135,3.0,10.0,54,0.00,,,0.01,meteohub,2013-04-13 21:33:00,
2013-04-13 16:38:00,35.8,20.8,30.09,SE,135,3.0,7.0,54,0.00,,,0.01,meteohub,2013-04-13 21:38:00,
2013-04-13 16:44:00,36.0,21.0,30.09,South,180,3.0,5.0,54,0.00,,,0.01,meteohub,2013-04-13 21:44:00,
2013-04-13 16:49:00,35.8,20.8,30.09,SE,135,4.0,5.0,54,0.00,,,0.01,meteohub,2013-04-13 21:49:00,
2013-04-13 16:54:00,35.6,20.7,30.09,South,180,4.0,5.0,54,0.00,,,0.01,meteohub,2013-04-13 21:54:00,
2013-04-13 16:59:00,35.8,20.8,30.09,East,90,4.0,5.0,54,0.00,,,0.01,meteohub,2013-04-13 21:59:00,
2013-04-13 17:04:00,35.8,20.8,30.09,SE,135,6.0,6.0,54,0.00,,,0.01,meteohub,2013-04-13 22:04:00,
2013-04-13 17:10:00,35.4,20.8,30.09,SW,225,2.0,6.0,55,0.00,,,0.01,meteohub,2013-04-13 22:10:00,
2013-04-13 17:15:00,35.6,20.7,30.09,South,180,4.0,7.0,54,0.00,,,0.01,meteohub,2013-04-13 22:15:00,
2013-04-13 17:20:00,35.6,20.7,30.10,SE,135,2.0,7.0,54,0.00,,,0.01,meteohub,2013-04-13 22:20:00,
2013-04-13 17:25:00,35.6,20.7,30.10,SW,225,2.0,7.0,54,0.00,,,0.01,meteohub,2013-04-13 22:25:00,
2013-04-13 17:30:00,35.8,20.8,30.09,West,270,2.0,3.0,54,0.00,,,0.01,meteohub,2013-04-13 22:30:00,
2013-04-13 17:35:00,35.8,20.8,30.10,West,270,1.0,3.0,54,0.00,,,0.01,meteohub,2013-04-13 22:35:00,
2013-04-13 17:40:00,35.8,20.8,30.10,SW,225,2.0,3.0,54,0.00,,,0.01,meteohub,2013-04-13 22:40:00,
2013-04-13 17:45:00,36.0,21.0,30.10,SE,135,1.0,2.0,54,0.00,,,0.01,meteohub,2013-04-13 22:45:00,
2013-04-13 17:50:00,36.0,20.5,30.09,South,180,2.0,2.0,53,0.00,,,0.01,meteohub,2013-04-13 22:50:00,
2013-04-13 17:55:00,36.0,20.5,30.09,West,270,2.0,4.0,53,0.00,,,0.01,meteohub,2013-04-13 22:55:00,
2013-04-13 18:00:00,35.8,20.3,30.09,SW,225,3.0,5.0,53,0.00,,,0.01,meteohub,2013-04-13 23:00:00,
2013-04-13 18:05:00,35.8,20.3,30.10,SW,225,3.0,5.0,53,0.00,,,0.01,meteohub,2013-04-13 23:05:00,
2013-04-13 18:10:00,35.6,20.1,30.10,SW,225,3.0,5.0,53,0.00,,,0.01,meteohub,2013-04-13 23:10:00,
2013-04-13 18:15:00,35.8,20.3,30.10,South,180,2.0,4.0,53,0.00,,,0.01,meteohub,2013-04-13 23:15:00,
2013-04-13 18:21:00,35.8,20.3,30.10,SW,225,1.0,4.0,53,0.00,,,0.01,meteohub,2013-04-13 23:21:00,
2013-04-13 18:26:00,35.6,20.1,30.10,West,270,2.0,5.0,53,0.00,,,0.01,meteohub,2013-04-13 23:26:00,
2013-04-13 18:31:00,35.4,20.5,30.10,SW,225,3.0,5.0,54,0.00,,,0.01,meteohub,2013-04-13 23:31:00,
2013-04-13 18:36:00,35.4,20.8,30.11,West,270,2.0,5.0,55,0.00,,,0.01,meteohub,2013-04-13 23:36:00,
2013-04-13 18:41:00,35.2,20.3,30.10,NW,315,1.0,5.0,54,0.00,,,0.01,meteohub,2013-04-13 23:41:00,
2013-04-13 18:46:00,35.2,20.7,30.10,SW,225,4.0,4.0,55,0.00,,,0.01,meteohub,2013-04-13 23:46:00,
2013-04-13 18:51:00,35.2,20.7,30.11,West,270,2.0,4.0,55,0.00,,,0.01,meteohub,2013-04-13 23:51:00,
2013-04-13 18:56:00,35.1,20.5,30.11,NW,315,1.0,4.0,55,0.00,,,0.01,meteohub,2013-04-13 23:56:00,
2013-04-13 19:01:00,35.1,20.5,30.11,West,270,2.0,4.0,55,0.00,,,0.01,meteohub,2013-04-14 00:01:00,
2013-04-13 19:06:00,34.9,20.3,30.11,SW,225,3.0,3.0,55,0.00,,,0.00,meteohub,2013-04-14 00:06:00,
2013-04-13 19:12:00,34.9,19.9,30.11,SW,225,4.0,4.0,54,0.00,,,0.00,meteohub,2013-04-14 00:12:00,
2013-04-13 19:17:00,34.7,19.8,30.11,West,270,1.0,4.0,54,0.00,,,0.00,meteohub,2013-04-14 00:17:00,
2013-04-13 19:22:00,34.7,19.8,30.11,South,180,2.0,4.0,54,0.00,,,0.00,meteohub,2013-04-14 00:22:00,
2013-04-13 19:27:00,34.5,19.6,30.11,SW,225,3.0,4.0,54,0.00,,,0.00,meteohub,2013-04-14 00:27:00,
2013-04-13 19:32:00,34.5,19.6,30.11,SSW,203,1.0,3.0,54,0.00,,,0.00,meteohub,2013-04-14 00:32:00,
2013-04-13 19:37:00,34.5,19.2,30.10,SW,225,4.0,4.0,53,0.00,,,0.00,meteohub,2013-04-14 00:37:00,
2013-04-13 19:42:00,34.3,18.5,30.10,SW,225,1.0,4.0,52,0.00,,,0.00,meteohub,2013-04-14 00:42:00,
2013-04-13 19:47:00,34.3,19.0,30.11,West,270,2.0,4.0,53,0.00,,,0.00,meteohub,2013-04-14 00:47:00,
2013-04-13 19:52:00,34.3,19.0,30.11,SW,225,2.0,4.0,53,0.00,,,0.00,meteohub,2013-04-14 00:52:00,
2013-04-13 19:57:00,34.2,19.2,30.11,West,270,3.0,3.0,54,0.00,,,0.00,meteohub,2013-04-14 00:57:00,
2013-04-13 20:02:00,34.2,19.8,30.12,SW,225,2.0,4.0,55,0.00,,,0.00,meteohub,2013-04-14 01:02:00,
2013-04-13 20:07:00,34.0,19.6,30.11,West,270,2.0,4.0,55,0.00,,,0.00,meteohub,2013-04-14 01:07:00,
2013-04-13 20:13:00,34.0,19.9,30.12,West,270,2.0,4.0,56,0.00,,,0.00,meteohub,2013-04-14 01:13:00,
2013-04-13 20:18:00,34.0,19.9,30.12,SW,225,2.0,2.0,56,0.00,,,0.00,meteohub,2013-04-14 01:18:00,
2013-04-13 20:23:00,34.0,19.9,30.12,SW,225,2.0,2.0,56,0.00,,,0.00,meteohub,2013-04-14 01:23:00,
2013-04-13 20:28:00,33.8,20.1,30.12,West,270,2.0,2.0,57,0.00,,,0.00,meteohub,2013-04-14 01:28:00,
2013-04-13 20:33:00,33.8,19.8,30.12,SW,225,2.0,2.0,56,0.00,,,0.00,meteohub,2013-04-14 01:33:00,
2013-04-13 20:39:00,33.8,19.8,30.13,SW,225,3.0,3.0,56,0.00,,,0.00,meteohub,2013-04-14 01:39:00,
2013-04-13 20:44:00,33.8,19.8,30.12,West,270,1.0,3.0,56,0.00,,,0.00,meteohub,2013-04-14 01:44:00,
2013-04-13 20:50:00,33.6,19.9,30.13,NW,315,2.0,3.0,57,0.00,,,0.00,meteohub,2013-04-14 01:50:00,
2013-04-13 20:55:00,33.8,20.1,30.12,West,270,2.0,3.0,57,0.00,,,0.00,meteohub,2013-04-14 01:55:00,
2013-04-13 21:00:00,33.8,20.7,30.13,West,270,3.0,3.0,58,0.00,,,0.00,meteohub,2013-04-14 02:00:00,
2013-04-13 21:05:00,33.8,20.7,30.13,NW,315,2.0,3.0,58,0.00,,,0.00,meteohub,2013-04-14 02:05:00,
2013-04-13 21:10:00,33.8,21.0,30.13,NW,315,2.0,4.0,59,0.00,,,0.00,meteohub,2013-04-14 02:10:00,
2013-04-13 21:15:00,33.8,21.0,30.14,North,0,2.0,4.0,59,0.00,,,0.00,meteohub,2013-04-14 02:15:00,
2013-04-13 21:20:00,33.8,21.0,30.14,North,0,2.0,4.0,59,0.00,,,0.00,meteohub,2013-04-14 02:20:00,
2013-04-13 21:25:00,33.6,21.2,30.14,NW,315,2.0,3.0,60,0.00,,,0.00,meteohub,2013-04-14 02:25:00,
2013-04-13 21:30:00,33.6,21.2,30.14,NW,315,2.0,3.0,60,0.00,,,0.00,meteohub,2013-04-14 02:30:00,
2013-04-13 21:36:00,33.6,21.2,30.14,NW,315,3.0,4.0,60,0.00,,,0.00,meteohub,2013-04-14 02:36:00,
2013-04-13 21:41:00,33.6,21.2,30.14,NW,315,3.0,4.0,60,0.00,,,0.00,meteohub,2013-04-14 02:41:00,
2013-04-13 21:46:00,33.6,21.2,30.15,NW,315,3.0,4.0,60,0.00,,,0.00,meteohub,2013-04-14 02:46:00,
2013-04-13 21:51:00,33.6,21.2,30.15,NW,315,1.0,3.0,60,0.00,,,0.00,meteohub,2013-04-14 02:51:00,
2013-04-13 21:56:00,33.6,21.2,30.14,West,270,2.0,3.0,60,0.00,,,0.00,meteohub,2013-04-14 02:56:00,
2013-04-13 22:02:00,33.4,21.0,30.15,NW,315,3.0,4.0,60,0.00,,,0.00,meteohub,2013-04-14 03:02:00,
2013-04-13 22:07:00,33.4,21.0,30.15,North,0,2.0,4.0,60,0.00,,,0.00,meteohub,2013-04-14 03:07:00,
2013-04-13 22:12:00,33.4,21.0,30.15,NW,315,3.0,4.0,60,0.00,,,0.00,meteohub,2013-04-14 03:12:00,
2013-04-13 22:17:00,33.3,20.8,30.15,NW,315,3.0,4.0,60,0.00,,,0.00,meteohub,2013-04-14 03:17:00,
2013-04-13 22:22:00,33.3,20.8,30.16,NW,315,4.0,4.0,60,0.00,,,0.00,meteohub,2013-04-14 03:22:00,
2013-04-13 22:27:00,33.3,20.8,30.15,NNW,338,3.0,5.0,60,0.00,,,0.00,meteohub,2013-04-14 03:27:00,
2013-04-13 22:33:00,33.3,20.8,30.15,North,0,2.0,5.0,60,0.00,,,0.00,meteohub,2013-04-14 03:33:00,
2013-04-13 22:38:00,33.3,20.8,30.16,North,0,2.0,5.0,60,0.00,,,0.00,meteohub,2013-04-14 03:38:00,
2013-04-13 22:43:00,33.1,20.7,30.17,North,0,3.0,4.0,60,0.00,,,0.00,meteohub,2013-04-14 03:43:00,
2013-04-13 22:48:00,33.1,20.7,30.17,North,0,4.0,4.0,60,0.00,,,0.00,meteohub,2013-04-14 03:48:00,
2013-04-13 22:53:00,33.1,20.7,30.16,NE,45,5.0,5.0,60,0.00,,,0.00,meteohub,2013-04-14 03:53:00,
2013-04-13 22:58:00,33.1,20.7,30.17,North,0,2.0,6.0,60,0.00,,,0.00,meteohub,2013-04-14 03:58:00,
2013-04-13 23:00:00,33.1,20.7,30.16,North,0,3.0,6.0,60,0.00,,,0.00,meteohub,2013-04-14 04:00:00,
2013-04-13 23:01:00,33.1,20.7,30.16,North,0,3.0,6.0,60,0.00,,,0.00,meteohub,2013-04-14 04:01:00,
2013-04-13 23:02:00,33.1,20.7,30.16,North,0,3.0,6.0,60,0.00,,,0.00,meteohub,2013-04-14 04:02:00,
2013-04-13 23:07:00,33.1,20.7,30.16,North,0,3.0,6.0,60,0.00,,,0.00,meteohub,2013-04-14 04:07:00,
2013-04-13 23:12:00,32.9,20.5,30.16,NW,315,3.0,5.0,60,0.00,,,0.00,meteohub,2013-04-14 04:12:00,
2013-04-13 23:17:00,32.9,20.5,30.16,North,0,3.0,4.0,60,0.00,,,0.00,meteohub,2013-04-14 04:17:00,
2013-04-13 23:22:00,32.7,20.3,30.16,North,0,4.0,4.0,60,0.00,,,0.00,meteohub,2013-04-14 04:22:00,
2013-04-13 23:28:00,32.5,20.7,30.15,North,0,2.0,4.0,61,0.00,,,0.00,meteohub,2013-04-14 04:28:00,
2013-04-13 23:33:00,32.5,20.7,30.15,NW,315,2.0,4.0,61,0.00,,,0.00,meteohub,2013-04-14 04:33:00,
2013-04-13 23:38:00,32.4,20.5,30.16,North,0,2.0,4.0,61,0.00,,,0.00,meteohub,2013-04-14 04:38:00,
2013-04-13 23:43:00,32.2,20.3,30.16,NW,315,2.0,4.0,61,0.00,,,0.00,meteohub,2013-04-14 04:43:00,
2013-04-13 23:48:00,32.0,20.1,30.15,NW,315,2.0,4.0,61,0.00,,,0.00,meteohub,2013-04-14 04:48:00,
2013-04-13 23:54:00,32.0,20.1,30.16,North,0,3.0,3.0,61,0.00,,,0.00,meteohub,2013-04-14 04:54:00,
2013-04-13 23:59:00,31.8,20.7,30.15,NW,315,4.0,4.0,63,0.00,,,0.00,meteohub,2013-04-14 04:59:00,